Weather History for Madison, SD

Change the Weather History Date:

Thursday, April 4, 2013

  Actual Average Record
Temperature  
Mean Temperature 38 °F -  
Max Temperature 48 °F 48 °F 62 °F (2012)
Min Temperature 28 °F 28 °F 26 °F (2014)
Degree Days  
Heating Degree Days 27    
Moisture  
Dew Point 28 °F    
Average Humidity 69    
Maximum Humidity 100    
Minimum Humidity 43    
Precipitation  
Precipitation 0.00 in - - ()
Sea Level Pressure  
Sea Level Pressure 30.12 in    
Wind  
Wind Speed 14 mph (NNE)    
Max Wind Speed 18 mph    
Max Gust Speed 26 mph    
Visibility 10 miles    
Events Rain    
Averages and records for this station are not official NWS values.
T = Trace of Precipitation, MM = Missing Value Source: NWS Daily Summary

Daily Weather History Graph

Daily Weather History Graph

Search for Another Location

Airport:

Trip Planner

Search our weather history database for the weather conditions in past years. The results will help you decide how hot, cold, wet, or windy it might be!

Date:

Astronomy

Apr. 04, 2013 Rise Set
Actual Time 7:03 AM CDT 7:59 PM CDT
Civil Twilight 6:34 AM CDT 8:28 PM CDT
Nautical Twilight 5:59 AM CDT 9:03 PM CDT
Astronomical Twilight 5:23 AM CDT 9:40 PM CDT
Moon 3:43 AM CDT (4/4) 2:07 PM CDT (4/4)
Length of Visible Light 13h 54m
Length of Day
12h 55m
Waning Crescent, 33% of the Moon is Illuminated
Apr 4
Waning Crescent
Apr 10
New
Apr 18
First Quarter
Apr 25
Full
May 2
Last Quarter

Hourly Weather History & Observations

Time (CDT) Temp. Windchill Dew Point Humidity Pressure Visibility Wind Dir Wind Speed Gust Speed Precip Events Conditions
12:15 AM 44.6 °F 36.9 °F 28.4 °F 53% 30.02 in 10.0 mi SSW 18.4 mph 26.5 mph N/A   Clear
12:35 AM 44.6 °F 37.4 °F 28.4 °F 53% 30.04 in 10.0 mi SW 16.1 mph 24.2 mph N/A   Mostly Cloudy
12:55 AM 44.6 °F 37.2 °F 28.4 °F 53% 30.03 in 10.0 mi SW 17.3 mph 24.2 mph N/A   Mostly Cloudy
1:15 AM 42.8 °F 35.1 °F 28.4 °F 57% 30.03 in 10.0 mi SW 16.1 mph 23.0 mph N/A   Partly Cloudy
1:35 AM 41.0 °F 33.1 °F 26.6 °F 57% 30.03 in 10.0 mi SW 15.0 mph 24.2 mph N/A   Clear
1:55 AM 41.0 °F 32.5 °F 26.6 °F 57% 30.03 in 10.0 mi SW 17.3 mph 21.9 mph N/A   Mostly Cloudy
2:15 AM 41.0 °F 33.5 °F 28.4 °F 61% 30.03 in 10.0 mi SW 13.8 mph 19.6 mph N/A   Overcast
2:35 AM 41.0 °F 33.1 °F 28.4 °F 61% 30.02 in 10.0 mi SW 15.0 mph 21.9 mph N/A   Overcast
2:55 AM 41.0 °F 33.1 °F 28.4 °F 61% 30.01 in 10.0 mi SW 15.0 mph 21.9 mph N/A   Mostly Cloudy
3:15 AM 41.0 °F 33.1 °F 28.4 °F 61% 30.01 in 10.0 mi SW 15.0 mph 23.0 mph N/A   Scattered Clouds
3:35 AM 39.2 °F 30.5 °F 28.4 °F 65% 30.00 in 10.0 mi SW 16.1 mph 24.2 mph N/A   Scattered Clouds
3:55 AM 39.2 °F 32.0 °F 28.4 °F 65% 30.01 in 10.0 mi SW 11.5 mph 20.7 mph N/A   Mostly Cloudy
4:15 AM 39.2 °F 33.0 °F 28.4 °F 65% 30.01 in 10.0 mi SW 9.2 mph - N/A   Scattered Clouds
4:35 AM 37.4 °F 31.4 °F 28.4 °F 70% 30.03 in 10.0 mi NW 8.1 mph - N/A   Partly Cloudy
4:55 AM 35.6 °F 30.7 °F 32.0 °F 87% 30.03 in 10.0 mi NNE 5.8 mph - N/A   Scattered Clouds
5:15 AM 35.6 °F 29.9 °F 32.0 °F 87% 30.03 in 10.0 mi NE 6.9 mph - N/A   Overcast
5:35 AM 35.6 °F 30.7 °F 32.0 °F 87% 30.04 in 10.0 mi ENE 5.8 mph - N/A   Mostly Cloudy
5:55 AM 33.8 °F 23.5 °F 28.4 °F 81% 30.05 in 10.0 mi NE 16.1 mph - N/A   Partly Cloudy
6:15 AM 32.0 °F 22.1 °F 28.4 °F 87% 30.07 in 10.0 mi NNE 13.8 mph 17.3 mph N/A   Clear
6:35 AM 32.0 °F 23.6 °F 30.2 °F 93% 30.08 in 10.0 mi NE 10.4 mph - N/A   Clear
6:55 AM 32.0 °F 23.0 °F 32.0 °F 100% 30.09 in 10.0 mi NNE 11.5 mph - N/A   Clear
7:15 AM 32.0 °F 23.0 °F 30.2 °F 93% 30.10 in 10.0 mi NNE 11.5 mph - N/A   Clear
7:35 AM 32.0 °F 23.6 °F 30.2 °F 93% 30.10 in 10.0 mi NE 10.4 mph - N/A   Clear
7:55 AM 33.8 °F 25.8 °F 32.0 °F 93% 30.10 in 10.0 mi NE 10.4 mph - N/A   Clear
8:15 AM 33.8 °F 25.3 °F 32.0 °F 93% 30.11 in 10.0 mi NNE 11.5 mph - N/A   Clear
8:35 AM 35.6 °F 26.6 °F 32.0 °F 87% 30.12 in 10.0 mi North 13.8 mph - N/A   Clear
8:55 AM 35.6 °F 26.2 °F 32.0 °F 87% 30.13 in 10.0 mi NNE 15.0 mph - N/A   Clear
9:15 AM 37.4 °F 28.2 °F 30.2 °F 75% 30.13 in 10.0 mi North 16.1 mph - N/A   Clear
9:35 AM 37.4 °F 28.2 °F 30.2 °F 75% 30.12 in 10.0 mi NNE 16.1 mph - N/A   Clear
9:55 AM 39.2 °F 30.5 °F 28.4 °F 65% 30.13 in 10.0 mi NNE 16.1 mph 21.9 mph N/A   Clear
10:15 AM 39.2 °F 30.2 °F 26.6 °F 61% 30.13 in 10.0 mi NNE 17.3 mph - N/A   Clear
10:35 AM 39.2 °F 30.2 °F 26.6 °F 61% 30.15 in - North 17.3 mph 24.2 mph N/A   Clear
11:15 AM 41.0 °F 32.8 °F 28.4 °F 61% 30.15 in 10.0 mi North 16.1 mph - N/A   Clear
11:35 AM 41.0 °F 33.5 °F 26.6 °F 57% 30.16 in 10.0 mi North 13.8 mph 18.4 mph N/A   Clear
11:55 AM 42.8 °F 35.8 °F 26.6 °F 53% 30.16 in 10.0 mi North 13.8 mph 18.4 mph N/A   Clear
12:15 PM 42.8 °F 35.8 °F 28.4 °F 57% 30.15 in 10.0 mi NNE 13.8 mph 19.6 mph N/A   Clear
12:35 PM 44.6 °F 37.8 °F 26.6 °F 49% 30.15 in 10.0 mi NNE 15.0 mph - N/A   Clear
12:55 PM 46.4 °F 39.8 °F 26.6 °F 46% 30.15 in 10.0 mi North 16.1 mph 19.6 mph N/A   Clear
1:15 PM 46.4 °F 39.5 °F 24.8 °F 43% 30.15 in 10.0 mi North 17.3 mph 24.2 mph N/A   Clear
1:35 PM 46.4 °F 40.4 °F 26.6 °F 46% 30.15 in 10.0 mi North 13.8 mph 20.7 mph N/A   Clear
1:55 PM 46.4 °F 40.1 °F 28.4 °F 50% 30.14 in 10.0 mi North 15.0 mph 19.6 mph N/A   Clear
2:15 PM 48.2 °F - 28.4 °F 46% 30.14 in 10.0 mi NNE 17.3 mph 20.7 mph N/A   Clear
2:35 PM 46.4 °F 41.1 °F 28.4 °F 50% 30.14 in 10.0 mi NE 11.5 mph 21.9 mph N/A   Clear
2:55 PM 46.4 °F 40.4 °F 28.4 °F 50% 30.14 in 10.0 mi NNE 13.8 mph 18.4 mph N/A   Clear
3:15 PM 46.4 °F 40.1 °F 26.6 °F 46% 30.14 in 10.0 mi NNE 15.0 mph 20.7 mph N/A   Clear
3:35 PM 46.4 °F 39.8 °F 26.6 °F 46% 30.14 in 10.0 mi NNE 16.1 mph 19.6 mph N/A   Partly Cloudy
3:55 PM 44.6 °F 38.1 °F 26.6 °F 49% 30.13 in 10.0 mi NNE 13.8 mph - N/A   Partly Cloudy
4:15 PM 44.6 °F 37.8 °F 28.4 °F 53% 30.13 in 10.0 mi NNE 15.0 mph 20.7 mph N/A   Mostly Cloudy
4:35 PM 44.6 °F 38.1 °F 26.6 °F 49% 30.14 in 10.0 mi NNE 13.8 mph - N/A   Overcast
4:55 PM 42.8 °F 35.4 °F 26.6 °F 53% 30.15 in 10.0 mi NNE 15.0 mph 20.7 mph N/A   Overcast
5:15 PM 41.0 °F 33.5 °F 26.6 °F 57% 30.14 in 10.0 mi NE 13.8 mph - N/A   Overcast
5:35 PM 41.0 °F 33.9 °F 26.6 °F 57% 30.15 in 10.0 mi NE 12.7 mph - N/A   Scattered Clouds
5:55 PM 41.0 °F 33.9 °F 26.6 °F 57% 30.15 in 10.0 mi NNE 12.7 mph - N/A   Clear
6:15 PM 41.0 °F 33.9 °F 26.6 °F 57% 30.15 in 10.0 mi NE 12.7 mph - N/A   Clear
6:35 PM 39.2 °F 31.2 °F 26.6 °F 61% 30.16 in 10.0 mi NE 13.8 mph - N/A   Clear
6:55 PM 39.2 °F 31.6 °F 26.6 °F 61% 30.15 in 10.0 mi NE 12.7 mph 18.4 mph N/A   Clear
7:15 PM 37.4 °F 28.9 °F 26.6 °F 65% 30.16 in 10.0 mi NE 13.8 mph - N/A   Clear
7:35 PM 35.6 °F 27.1 °F 28.4 °F 75% 30.16 in 10.0 mi NE 12.7 mph - N/A   Clear
7:55 PM 33.8 °F 26.4 °F 28.4 °F 81% 30.16 in 10.0 mi NE 9.2 mph - N/A   Scattered Clouds
8:15 PM 32.0 °F 23.6 °F 28.4 °F 87% 30.16 in 10.0 mi NE 10.4 mph - N/A   Overcast
8:35 PM 32.0 °F 23.0 °F 28.4 °F 87% 30.17 in 10.0 mi NE 11.5 mph - N/A   Overcast
8:55 PM 32.0 °F 24.2 °F 28.4 °F 87% 30.18 in 10.0 mi NE 9.2 mph - N/A   Overcast
9:15 PM 32.0 °F 23.6 °F 26.6 °F 80% 30.18 in 10.0 mi NE 10.4 mph - N/A Rain Light Rain
9:35 PM 32.0 °F 23.0 °F 26.6 °F 80% 30.19 in 10.0 mi NE 11.5 mph - N/A   Mostly Cloudy
9:55 PM 32.0 °F 23.0 °F 26.6 °F 80% 30.20 in 10.0 mi NE 11.5 mph 16.1 mph N/A   Mostly Cloudy
10:15 PM 30.2 °F 21.3 °F 28.4 °F 93% 30.19 in 10.0 mi NE 10.4 mph - N/A   Overcast
10:35 PM 28.4 °F 18.5 °F 26.6 °F 93% 30.19 in 10.0 mi NE 11.5 mph - N/A   Mostly Cloudy
10:55 PM 28.4 °F 18.5 °F 28.4 °F 100% 30.19 in 10.0 mi NE 11.5 mph - N/A   Overcast
11:15 PM 28.4 °F 18.5 °F 24.8 °F 86% 30.20 in 10.0 mi NE 11.5 mph - N/A   Overcast
11:35 PM 28.4 °F 19.7 °F 24.8 °F 86% 30.20 in 10.0 mi NNE 9.2 mph - N/A   Mostly Cloudy
11:55 PM 28.4 °F 18.5 °F 26.6 °F 93% 30.19 in 10.0 mi NNE 11.5 mph - N/A   Mostly Cloudy